Location: Dulzura
(32.6442°N, 116.7814°W)
Time: 04:11:29
(UTC+00:00)

VELOX 1 - Visible Passes

Search period start: 29 March 2023 00:00
Search period end: 08 April 2023 00:00
Orbit: 618 x 633 km, 98.4° (Epoch: 28 March)

Date Brightness Start Highest point End Pass type
(mag) Time Alt. Az. Time Alt. Az. Time Alt. Az.
29 Mar ? 03:06:48 10° NNW 03:09:51 19° WNW 03:12:54 10° WSW visible
29 Mar ? 12:22:21 10° ESE 12:24:49 15° ENE 12:27:17 10° NNE visible
30 Mar ? 03:27:03 10° NW 03:28:36 12° WNW 03:30:08 10° W visible
30 Mar ? 12:40:06 10° SE 12:43:36 24° ENE 12:47:05 10° NNE visible
31 Mar ? 12:58:21 10° SE 13:02:24 39° ENE 13:06:27 10° N visible
01 Apr ? 02:26:29 10° N 02:30:43 56° WNW 02:34:56 10° SSW visible
02 Apr ? 02:45:39 10° N 02:49:32 33° WNW 02:53:24 10° SW visible
03 Apr ? 03:05:05 10° NNW 03:08:17 21° WNW 03:11:28 10° WSW visible
03 Apr ? 12:21:01 10° E 12:23:14 14° ENE 12:25:28 10° NE visible
04 Apr ? 03:25:05 10° NW 03:26:58 13° WNW 03:28:51 10° W visible
04 Apr ? 12:38:34 10° ESE 12:41:56 22° ENE 12:45:17 10° NNE visible
05 Apr ? 12:56:41 10° SE 13:00:40 36° ENE 13:04:38 10° N visible
06 Apr ? 02:24:40 10° N 02:28:55 62° WNW 02:33:10 10° SSW visible
07 Apr ? 02:43:42 10° N 02:47:40 36° WNW 02:51:37 10° SW visible
